QPF
0.00 0.00 0.00 0.00 0.00 0.00 0.00 0.00 0.00 0.00 0.00 0.00 0.00 0.00 0.00 0.00 0.00 0.00 0.00 0.00 0.00 0.00 0.00 0.00 0.04 0.25 0.02 0.00 0.02 0.09 0.29 0.35 0.85 0.60 0.17 0.13 0.12 0.26 0.25 0.21 0.24 0.15 0.13
0.00 0.00 0.00 0.00 0.00 0.00 0.00 0.00 0.00 0.00 0.00 0.00 0.00 0.00 0.00 0.00 0.00 0.00 0.00 0.00 0.00 0.00 0.00 0.00 0.02 0.08 0.00 0.01 0.09 0.18 0.27 0.22 0.19 0.08 0.10 0.30 0.44 0.35 0.23 0.19 0.19 0.24 0.11
0.00 0.00 0.00 0.00 0.00 0.00 0.00 0.00 0.00 0.00 0.00 0.00 0.00 0.00 0.00 0.00 0.00 0.00 0.00 0.00 0.00 0.00 0.00 0.00 0.00 0.00 0.01 0.06 0.08 0.12 0.13 0.13 0.07 0.09 0.18 0.31 0.29 0.17 0.16 0.27 0.20 0.20 0.21
0.00 0.00 0.00 0.00 0.00 0.00 0.00 0.00 0.00 0.00 0.00 0.00 0.00 0.00 0.00 0.00 0.00 0.00 0.00 0.00 0.00 0.00 0.00 0.00 0.00 0.00 0.00 0.01 0.06 0.10 0.07 0.02 0.02 0.06 0.12 0.08 0.14 0.10 0.15 0.35 0.53 0.44 0.51
0.00 0.00 0.00 0.00 0.00 0.00 0.00 0.00 0.00 0.00 0.00 0.00 0.00 0.00 0.00 0.00 0.00 0.00 0.00 0.00 0.00 0.00 0.00 0.00 0.00 0.00 0.00 0.00 0.01 0.09 0.14 0.11 0.08 0.07 0.08 0.12 0.14 0.11 0.16 0.16 0.23 0.39 0.41
0.00 0.00 0.00 0.00 0.00 0.00 0.00 0.00 0.00 0.00 0.00 0.00 0.00 0.00 0.00 0.00 0.00 0.00 0.00 0.00 0.00 0.00 0.00 0.00 0.00 0.00 0.00 0.00 0.00 0.03 0.10 0.13 0.10 0.06 0.07 0.04 0.06 0.08 0.12 0.25 0.23 0.19 0.31
0.00 0.00 0.00 0.00 0.00 0.00 0.00 0.00 0.00 0.02 0.04 0.00 0.00 0.00 0.00 0.00 0.00 0.01 0.00 0.00 0.00 0.00 0.00 0.00 0.00 0.00 0.00 0.17 0.06 0.00 0.00 0.00 0.04 0.01 0.00 0.00 0.00 0.02 0.06 0.13 0.05 0.07 0.06
0.00 0.00 0.00 0.00 0.00 0.00 0.00 0.03 0.03 0.06 0.03 0.02 0.01 0.00 0.00 0.02 0.07 0.07 0.00 0.00 0.00 0.00 0.00 0.00 0.00 0.00 0.06 0.33 0.08 0.00 0.00 0.00 0.00 0.00 0.00 0.00 0.00 0.00 0.01 0.00 0.00 0.02 0.00
0.00 0.00 0.00 0.00 0.00 0.00 0.03 0.08 0.11 0.15 0.14 0.11 0.05 0.01 0.00 0.11 0.02 0.00 0.00 0.00 0.00 0.00 0.00 0.00 0.01 0.02 0.04 0.09 0.13 0.00 0.00 0.00 0.00 0.00 0.00 0.00 0.00 0.00 0.00 0.00 0.00 0.00 0.00
0.00 0.00 0.00 0.00 0.00 0.02 0.08 0.12 0.11 0.14 0.09 0.06 0.03 0.06 0.05 0.03 0.05 0.01 0.00 0.00 0.00 0.00 0.00 0.00 0.01 0.03 0.13 0.14 0.04 0.00 0.00 0.00 0.00 0.00 0.00 0.00 0.00 0.00 0.00 0.00 0.00 0.00 0.00
0.00 0.00 0.00 0.00 0.00 0.11 0.13 0.09 0.05 0.01 0.02 0.02 0.11 0.14 0.12 0.08 0.07 0.03 0.00 0.00 0.01 0.00 0.00 0.00 0.00 0.05 0.07 0.06 0.00 0.00 0.00 0.00 0.00 0.00 0.00 0.00 0.02 0.02 0.01 0.00 0.04 0.02 0.02
0.00 0.00 0.00 0.00 0.00 0.07 0.05 0.03 0.01 0.00 0.03 0.05 0.11 0.11 0.08 0.05 0.03 0.01 0.00 0.00 0.01 0.00 0.00 0.00 0.00 0.02 0.09 0.04 0.00 0.00 0.00 0.00 0.00 0.00 0.00 0.00 0.00 0.01 0.00 0.00 0.02 0.05 0.07
0.00 0.00 0.00 0.01 0.01 0.04 0.01 0.02 0.02 0.03 0.03 0.05 0.05 0.04 0.03 0.02 0.01 0.00 0.01 0.02 0.00 0.00 0.01 0.02 0.00 0.02 0.04 0.01 0.00 0.00 0.00 0.00 0.00 0.00 0.00 0.00 0.00 0.00 0.00 0.00 0.00 0.00 0.01
0.00 0.00 0.00 0.00 0.01 0.04 0.02 0.03 0.05 0.05 0.03 0.02 0.01 0.00 0.00 0.00 0.00 0.00 0.01 0.01 0.01 0.03 0.02 0.02 0.00 0.01 0.02 0.00 0.00 0.00 0.00 0.00 0.00 0.00 0.00 0.00 0.00 0.00 0.00 0.00 0.00 0.00 0.00
0.00 0.00 0.01 0.01 0.03 0.05 0.05 0.03 0.02 0.01 0.00 0.00 0.00 0.00 0.00 0.00 0.00 0.00 0.00 0.00 0.00 0.02 0.03 0.00 0.00 0.00 0.00 0.00 0.00 0.00 0.00 0.00 0.00 0.00 0.00 0.00 0.00 0.00 0.00 0.00 0.00 0.00 0.00
0.01 0.02 0.01 0.02 0.04 0.02 0.01 0.00 0.00 0.00 0.00 0.00 0.00 0.00 0.00 0.00 0.00 0.00 0.00 0.00 0.00 0.00 0.01 0.00 0.00 0.00 0.00 0.00 0.00 0.00 0.00 0.00 0.00 0.00 0.00 0.00 0.00 0.00 0.00 0.00 0.00 0.00 0.00
0.00 0.01 0.01 0.01 0.00 0.00 0.00 0.00 0.00 0.00 0.00 0.00 0.00 0.00 0.00 0.00 0.00 0.00 0.00 0.00 0.00 0.00 0.00 0.00 0.00 0.00 0.00 0.00 0.00 0.00 0.00 0.00 0.00 0.00 0.00 0.00 0.00 0.00 0.00 0.00 0.00 0.00 0.00
0.00 0.01 0.01 0.00 0.00 0.00 0.00 0.00 0.00 0.00 0.00 0.00 0.00 0.00 0.00 0.00 0.00 0.00 0.00 0.00 0.00 0.00 0.00 0.00 0.00 0.00 0.00 0.00 0.00 0.00 0.00 0.00 0.00 0.00 0.00 0.00 0.00 0.00 0.00 0.00 0.00 0.00 0.00
0.00 0.00 0.00 0.00 0.00 0.00 0.00 0.00 0.00 0.00 0.00 0.00 0.00 0.00 0.00 0.00 0.00 0.00 0.00 0.00 0.00 0.00 0.00 0.00 0.00 0.00 0.00 0.00 0.00 0.00 0.00 0.00 0.00 0.00 0.00 0.00 0.00 0.00 0.00 0.00 0.00 0.00 0.00
0.00 0.00 0.00 0.00 0.00 0.00 0.00 0.00 0.00 0.00 0.00 0.00 0.00 0.00 0.00 0.00 0.00 0.00 0.00 0.00 0.00 0.00 0.00 0.00 0.00 0.00 0.00 0.00 0.00 0.00 0.00 0.00 0.00 0.00 0.00 0.00 0.00 0.00 0.00 0.00 0.00 0.00 0.00
0.00 0.00 0.00 0.00 0.00 0.00 0.00 0.00 0.00 0.00 0.00 0.00 0.00 0.00 0.00 0.00 0.00 0.00 0.00 0.00 0.00 0.00 0.00 0.00 0.00 0.00 0.00 0.00 0.00 0.00 0.00 0.00 0.00 0.00 0.00 0.00 0.00 0.00 0.00 0.00 0.00 0.00 0.00
0.00 0.00 0.00 0.00 0.00 0.00 0.00 0.00 0.00 0.00 0.00 0.00 0.00 0.00 0.00 0.00 0.00 0.00 0.00 0.00 0.00 0.00 0.00 0.00 0.00 0.00 0.00 0.00 0.00 0.00 0.00 0.00 0.00 0.00 0.00 0.00 0.00 0.00 0.00 0.00 0.00 0.00 0.00
0.00 0.00 0.00 0.00 0.00 0.00 0.00 0.00 0.00 0.00 0.00 0.00 0.00 0.00 0.00 0.00 0.00 0.00 0.00 0.00 0.00 0.00 0.00 0.00 0.00 0.00 0.00 0.00 0.00 0.00 0.00 0.00 0.00 0.00 0.00 0.00 0.00 0.00 0.00 0.00 0.00 0.00 0.00
0.00 0.00 0.00 0.00 0.00 0.00 0.00 0.00 0.00 0.00 0.00 0.00 0.00 0.00 0.00 0.00 0.00 0.00 0.00 0.00 0.00 0.00 0.00 0.00 0.00 0.00 0.00 0.00 0.00 0.00 0.00 0.00 0.00 0.00 0.00 0.00 0.00 0.00 0.00 0.00 0.00 0.00 0.00
0.00 0.00 0.00 0.00 0.00 0.00 0.00 0.00 0.00 0.00 0.00 0.00 0.00 0.00 0.00 0.00 0.00 0.00 0.00 0.00 0.00 0.00 0.00 0.00 0.00 0.00 0.00 0.00 0.00 0.00 0.00 0.00 0.00 0.00 0.00 0.00 0.00 0.00 0.00 0.00 0.00 0.00 0.00
0.00 0.00 0.00 0.00 0.00 0.00 0.00 0.00 0.00 0.00 0.00 0.00 0.00 0.00 0.00 0.00 0.00 0.00 0.00 0.00 0.00 0.00 0.00 0.00 0.00 0.00 0.00 0.00 0.00 0.00 0.00 0.00 0.00 0.00 0.00 0.00 0.00 0.00 0.00 0.00 0.00 0.00 0.00
MSLP
1017.28 1017.49 1017.17 1016.78 1016.84 1016.35 1016.10 1016.02 1016.02 1016.04 1016.15 1016.26 1015.53 1015.08 1015.30 1014.57 1013.92 1013.20 1013.45 1014.63 1014.75 1014.79 1015.01 1015.29 1015.56 1015.62 1015.94 1016.22 1016.45 1016.77 1017.02 1017.43 1017.65 1017.64 1017.88 1018.04 1018.32 1018.56 1018.72 1018.58 1018.77 1019.04 1019.28
1017.66 1017.11 1017.29 1016.90 1016.63 1016.38 1016.46 1016.28 1016.32 1016.64 1016.03 1015.57 1015.35 1015.26 1015.14 1014.26 1013.64 1013.64 1013.37 1013.28 1014.12 1014.27 1014.67 1014.97 1015.13 1015.30 1015.52 1015.73 1015.93 1016.11 1016.37 1016.75 1016.90 1017.04 1017.16 1017.79 1017.68 1017.49 1017.64 1017.82 1017.98 1018.38 1018.82
1018.42 1018.19 1017.46 1017.01 1016.74 1016.80 1016.91 1016.55 1016.86 1016.57 1015.79 1015.46 1015.03 1014.39 1014.22 1014.48 1013.95 1013.97 1013.66 1013.26 1013.75 1014.15 1014.43 1014.62 1014.92 1015.06 1015.23 1015.35 1015.41 1015.56 1015.74 1015.93 1016.11 1016.29 1016.58 1016.78 1016.93 1017.01 1017.19 1017.26 1017.09 1017.56 1018.02
1018.78 1018.40 1017.29 1017.03 1017.54 1017.30 1016.52 1017.00 1016.62 1016.24 1016.01 1015.53 1014.81 1014.54 1014.05 1013.42 1013.74 1013.57 1013.39 1013.79 1013.70 1013.19 1013.95 1014.48 1014.70 1014.81 1014.94 1015.05 1014.96 1014.97 1015.31 1015.52 1015.70 1015.89 1016.08 1016.15 1016.15 1016.22 1016.35 1016.61 1016.60 1016.53 1017.12
1018.61 1018.68 1017.53 1017.36 1018.03 1017.12 1016.63 1016.67 1016.47 1016.79 1016.40 1015.71 1014.78 1014.37 1013.66 1013.48 1013.58 1013.39 1013.45 1013.87 1014.01 1013.61 1013.43 1014.42 1014.35 1014.31 1014.51 1014.64 1014.79 1014.92 1015.02 1015.28 1015.36 1015.27 1015.35 1015.55 1015.56 1015.54 1015.51 1015.82 1015.85 1016.24 1016.43
1018.67 1018.71 1017.82 1018.11 1018.12 1017.28 1017.23 1017.22 1017.56 1017.03 1016.83 1016.04 1015.05 1014.18 1013.87 1013.42 1013.36 1013.65 1013.95 1014.12 1013.90 1013.37 1013.53 1013.87 1013.70 1013.89 1014.10 1014.09 1014.44 1014.87 1015.07 1015.06 1014.89 1014.76 1014.84 1014.85 1014.83 1014.71 1014.86 1015.06 1015.48 1015.78 1015.84
1018.81 1018.68 1018.18 1017.87 1017.90 1017.65 1017.82 1017.77 1017.29 1017.08 1016.53 1016.11 1015.35 1014.18 1013.69 1013.92 1013.65 1013.47 1013.77 1013.90 1013.79 1013.75 1013.94 1013.94 1013.79 1013.68 1013.61 1014.12 1014.18 1014.56 1015.12 1015.06 1014.99 1014.82 1014.71 1014.54 1014.36 1014.40 1014.53 1014.84 1015.16 1015.53 1015.71
1018.64 1018.55 1018.62 1018.24 1017.84 1017.85 1017.75 1017.58 1017.67 1017.47 1016.73 1016.35 1016.11 1015.43 1014.72 1013.93 1014.63 1014.16 1013.54 1013.72 1013.71 1013.58 1013.63 1013.54 1013.78 1013.75 1014.24 1014.35 1014.51 1015.25 1015.60 1015.45 1015.26 1015.10 1014.82 1014.55 1014.26 1014.19 1014.46 1014.90 1015.22 1015.41 1015.70
1018.33 1018.47 1018.48 1018.35 1018.23 1017.99 1017.34 1017.57 1017.68 1017.46 1017.25 1016.90 1016.40 1015.88 1015.16 1015.05 1014.57 1013.72 1013.95 1013.39 1013.73 1014.01 1013.94 1013.52 1014.68 1014.31 1014.88 1015.31 1015.63 1015.80 1016.25 1016.10 1015.80 1015.59 1015.31 1015.02 1014.74 1014.65 1014.72 1014.90 1015.16 1015.38 1015.60
1018.22 1018.22 1017.97 1018.02 1017.93 1017.59 1017.60 1017.71 1017.58 1017.41 1017.18 1016.41 1015.69 1016.26 1016.35 1016.12 1015.85 1014.36 1013.46 1013.68 1014.26 1014.55 1014.49 1014.69 1015.63 1015.75 1016.11 1016.32 1016.77 1017.14 1016.87 1016.60 1016.37 1016.10 1015.79 1015.49 1015.06 1014.92 1014.80 1014.81 1014.95 1015.19 1015.34
1017.89 1017.75 1017.75 1017.82 1017.43 1017.16 1017.49 1017.39 1017.33 1017.23 1017.00 1016.67 1016.68 1016.62 1016.44 1016.28 1016.33 1015.81 1014.41 1014.32 1015.05 1014.90 1015.44 1016.09 1016.38 1016.26 1016.59 1016.90 1017.47 1017.87 1017.59 1017.27 1016.91 1016.65 1016.28 1015.97 1015.62 1015.29 1015.15 1014.87 1014.78 1014.80 1014.93
1017.14 1017.32 1017.36 1017.35 1017.19 1017.13 1017.10 1017.10 1017.19 1017.11 1017.09 1017.16 1017.18 1017.12 1016.86 1016.44 1015.98 1015.27 1014.65 1015.19 1015.72 1015.69 1016.22 1016.54 1016.46 1016.94 1017.43 1017.38 1018.09 1018.42 1018.09 1017.89 1017.74 1017.47 1017.10 1016.78 1016.50 1016.14 1015.87 1015.50 1015.16 1014.85 1014.64
1016.62 1016.75 1017.05 1017.19 1017.15 1017.00 1016.90 1017.11 1017.29 1017.47 1017.34 1017.41 1017.35 1016.94 1016.66 1016.19 1015.87 1015.72 1016.14 1016.41 1015.72 1016.21 1016.84 1017.33 1017.44 1017.59 1017.57 1017.90 1018.19 1018.43 1018.66 1018.51 1018.29 1018.00 1017.70 1017.42 1017.18 1016.84 1016.55 1016.28 1015.93 1015.67 1015.37
1016.95 1017.23 1017.00 1017.10 1016.91 1016.98 1016.99 1017.19 1017.41 1017.49 1017.47 1017.46 1017.35 1017.23 1016.56 1016.09 1016.33 1016.20 1016.73 1016.69 1016.09 1016.57 1017.35 1017.61 1017.62 1017.70 1017.89 1018.10 1018.38 1018.63 1019.02 1018.99 1018.73 1018.64 1018.33 1018.00 1017.75 1017.55 1017.28 1017.10 1016.82 1016.38 1016.11
1017.06 1017.10 1016.93 1017.11 1017.04 1016.93 1017.15 1017.12 1017.28 1017.58 1017.53 1017.35 1016.99 1017.28 1016.79 1016.73 1017.08 1017.15 1017.14 1017.16 1017.10 1016.40 1017.43 1017.79 1018.03 1018.29 1017.96 1017.92 1018.27 1018.12 1018.84 1019.35 1019.15 1019.27 1019.04 1018.77 1018.44 1018.14 1017.79 1017.55 1017.35 1017.13 1016.88
1016.69 1016.84 1017.00 1017.10 1017.13 1017.20 1017.22 1017.17 1017.21 1018.06 1018.00 1017.77 1017.66 1018.10 1017.81 1017.55 1016.96 1016.87 1016.62 1016.79 1017.06 1016.96 1016.56 1017.63 1018.29 1018.40 1018.30 1017.75 1018.09 1017.93 1018.85 1019.11 1018.95 1019.38 1019.39 1019.22 1019.04 1018.77 1018.56 1018.36 1018.05 1017.77 1017.50
1016.84 1016.84 1017.13 1017.45 1017.74 1017.72 1017.82 1018.01 1018.20 1018.42 1018.54 1018.55 1018.45 1018.52 1018.48 1018.40 1017.84 1017.46 1017.36 1017.08 1017.09 1016.93 1016.54 1017.33 1017.90 1018.73 1018.72 1018.81 1018.33 1018.05 1018.46 1018.12 1018.94 1019.30 1019.39 1019.38 1019.29 1019.15 1019.03 1018.84 1018.61 1018.43 1018.17
1016.94 1017.18 1017.51 1017.83 1017.92 1018.11 1018.33 1018.27 1018.44 1018.85 1018.87 1018.96 1019.04 1019.10 1019.06 1018.87 1018.41 1018.36 1017.98 1018.26 1018.14 1018.00 1017.44 1018.08 1018.52 1018.41 1019.03 1018.76 1018.67 1018.47 1017.84 1017.68 1018.50 1019.32 1019.25 1019.15 1019.32 1019.25 1019.13 1019.21 1019.18 1019.03 1018.83
1017.13 1017.23 1017.73 1018.13 1018.41 1018.71 1018.55 1018.77 1019.11 1019.31 1019.33 1019.46 1019.60 1019.65 1019.69 1019.67 1019.62 1019.42 1019.32 1018.80 1018.61 1018.72 1018.39 1018.40 1018.58 1018.89 1019.06 1019.10 1018.57 1018.30 1018.08 1018.38 1018.01 1019.08 1019.18 1019.05 1019.22 1019.48 1019.22 1019.25 1019.49 1019.47 1019.28
1017.47 1017.97 1018.43 1018.65 1018.68 1018.63 1018.72 1019.14 1019.56 1019.67 1019.60 1019.85 1020.07 1020.17 1020.33 1020.45 1020.53 1020.06 1019.93 1019.70 1019.52 1018.87 1018.94 1018.78 1018.91 1019.16 1019.28 1019.33 1019.06 1018.60 1018.22 1018.09 1018.23 1018.14 1018.09 1018.09 1018.83 1019.24 1019.09 1018.96 1019.21 1019.47 1019.62
1018.01 1018.42 1018.63 1018.54 1018.70 1018.97 1019.06 1019.61 1019.75 1019.83 1019.88 1020.14 1020.41 1020.81 1021.13 1021.46 1021.45 1021.20 1020.90 1021.01 1020.40 1019.81 1019.42 1019.08 1019.21 1019.61 1020.03 1019.86 1019.84 1019.22 1018.85 1018.71 1018.34 1018.45 1018.38 1017.48 1017.87 1018.72 1018.83 1018.66 1019.04 1019.34 1019.19
1018.35 1018.42 1018.51 1018.81 1018.82 1018.92 1019.98 1020.09 1019.86 1019.99 1020.23 1020.44 1020.84 1021.04 1021.21 1021.29 1021.73 1021.93 1021.84 1021.92 1021.79 1021.34 1021.03 1020.46 1020.13 1020.44 1021.06 1020.97 1020.80 1020.39 1019.93 1019.55 1018.69 1018.69 1018.70 1017.74 1017.53 1017.59 1017.73 1018.60 1019.29 1019.33 1019.15
1018.31 1018.43 1018.65 1019.02 1019.47 1020.31 1020.58 1020.50 1020.23 1020.19 1020.46 1020.77 1020.84 1020.70 1020.54 1021.19 1021.02 1021.51 1022.05 1021.90 1022.00 1022.02 1021.84 1021.58 1021.49 1021.76 1021.88 1021.98 1021.67 1021.00 1020.63 1020.17 1019.26 1018.58 1018.83 1018.42 1017.90 1017.58 1017.57 1018.94 1019.16 1019.03 1019.09
1018.01 1018.40 1018.85 1019.30 1020.04 1020.89 1021.01 1020.86 1020.44 1020.68 1020.91 1021.08 1021.18 1021.22 1021.33 1021.71 1022.25 1022.16 1021.87 1021.96 1022.07 1022.36 1022.21 1021.84 1022.33 1022.50 1022.50 1022.42 1022.09 1021.06 1020.57 1019.68 1018.89 1019.32 1019.50 1019.17 1018.46 1018.11 1017.77 1018.49 1018.86 1019.15 1019.42
1018.09 1018.44 1018.87 1019.56 1020.22 1021.15 1021.53 1021.32 1021.27 1021.02 1021.30 1021.48 1021.50 1021.63 1021.82 1022.47 1023.10 1022.73 1022.46 1022.38 1022.40 1022.45 1023.18 1023.04 1023.04 1023.00 1022.93 1022.77 1022.19 1021.11 1020.82 1020.09 1019.74 1019.75 1020.73 1020.16 1019.12 1018.57 1018.27 1017.95 1018.78 1019.44 1019.40
1017.91 1018.20 1019.10 1019.79 1020.46 1021.17 1021.66 1021.58 1021.72 1021.10 1021.39 1021.49 1021.90 1022.27 1022.91 1022.98 1023.13 1022.97 1022.68 1022.40 1022.48 1022.63 1022.36 1022.34 1022.44 1022.61 1022.63 1022.36 1022.10 1021.88 1021.67 1020.86 1020.55 1020.15 1021.34 1020.80 1019.98 1019.43 1018.76 1018.33 1018.55 1018.50 1018.66
Thickness
5790 5790 5794 5798 5798 5803 5806 5807 5807 5807 5806 5805 5809 5811 5809 5813 5816 5820 5816 5805 5802 5800 5796 5791 5786 5782 5776 5771 5766 5761 5757 5752 5748 5748 5742 5739 5736 5732 5729 5729 5727 5724 5722
5786 5793 5793 5797 5801 5803 5803 5804 5805 5803 5808 5810 5812 5810 5809 5814 5817 5815 5815 5815 5806 5803 5797 5792 5788 5784 5778 5773 5769 5765 5760 5755 5754 5751 5748 5742 5739 5737 5735 5731 5731 5728 5724
5780 5785 5792 5796 5800 5799 5799 5803 5801 5805 5810 5810 5814 5817 5816 5812 5814 5811 5812 5812 5807 5802 5796 5792 5787 5784 5779 5774 5770 5767 5763 5761 5759 5756 5751 5747 5745 5742 5736 5733 5733 5730 5727
5776 5781 5792 5796 5792 5795 5802 5799 5804 5806 5807 5810 5815 5816 5818 5820 5815 5813 5812 5806 5804 5806 5799 5791 5787 5784 5779 5775 5773 5770 5766 5762 5760 5757 5753 5751 5749 5746 5741 5737 5736 5734 5730
5777 5778 5788 5792 5787 5796 5800 5801 5804 5801 5801 5807 5813 5816 5820 5819 5815 5813 5809 5802 5798 5799 5798 5790 5788 5786 5781 5777 5773 5769 5767 5763 5761 5760 5758 5755 5753 5750 5748 5743 5740 5735 5733
5776 5776 5784 5785 5786 5795 5796 5796 5793 5800 5799 5805 5809 5814 5816 5818 5815 5809 5802 5797 5797 5800 5796 5791 5790 5787 5783 5782 5775 5770 5766 5765 5763 5763 5761 5760 5758 5756 5753 5749 5743 5738 5735
5773 5775 5780 5786 5788 5791 5791 5792 5796 5795 5798 5803 5802 5810 5812 5811 5811 5805 5802 5797 5797 5796 5792 5789 5788 5787 5787 5777 5764 5772 5765 5765 5762 5761 5761 5762 5762 5760 5756 5751 5746 5739 5738
5773 5775 5777 5783 5787 5789 5792 5793 5791 5789 5794 5798 5787 5790 5785 5799 5798 5795 5805 5799 5797 5797 5794 5793 5789 5787 5783 5783 5776 5766 5762 5761 5760 5760 5760 5760 5761 5760 5757 5750 5745 5741 5737
5774 5775 5778 5781 5784 5788 5794 5792 5790 5789 5782 5789 5792 5786 5779 5774 5790 5803 5797 5802 5797 5794 5793 5793 5782 5783 5776 5771 5765 5761 5757 5756 5757 5756 5756 5756 5756 5755 5752 5749 5745 5740 5736
5775 5777 5781 5783 5786 5790 5791 5790 5791 5789 5788 5788 5797 5791 5787 5784 5772 5778 5800 5798 5793 5787 5788 5785 5774 5771 5766 5761 5756 5752 5752 5753 5752 5752 5751 5751 5753 5751 5750 5747 5744 5740 5737
5777 5779 5781 5783 5789 5793 5791 5792 5791 5790 5791 5789 5786 5784 5782 5783 5779 5774 5776 5784 5783 5786 5780 5773 5767 5766 5760 5755 5750 5746 5747 5747 5747 5746 5747 5747 5747 5747 5746 5745 5742 5740 5737
5782 5781 5783 5787 5790 5792 5792 5792 5792 5791 5789 5787 5784 5782 5779 5776 5777 5781 5782 5776 5769 5774 5772 5767 5766 5759 5753 5751 5744 5741 5742 5741 5740 5740 5740 5739 5739 5739 5738 5739 5738 5738 5738
5782 5786 5786 5789 5792 5792 5792 5791 5790 5787 5787 5784 5783 5784 5785 5785 5786 5782 5772 5765 5769 5768 5763 5760 5756 5753 5751 5746 5742 5738 5735 5734 5733 5733 5733 5732 5731 5731 5730 5729 5730 5729 5729
5780 5781 5786 5789 5791 5792 5792 5790 5788 5787 5787 5785 5784 5783 5786 5788 5783 5781 5770 5765 5764 5759 5755 5751 5754 5751 5747 5742 5738 5734 5729 5727 5726 5724 5724 5724 5722 5720 5719 5717 5717 5718 5718
5779 5782 5786 5788 5789 5791 5790 5790 5789 5786 5787 5787 5788 5783 5784 5783 5778 5775 5772 5767 5759 5756 5745 5749 5745 5745 5744 5741 5737 5735 5726 5720 5719 5716 5715 5713 5712 5710 5710 5709 5707 5705 5704
5783 5785 5786 5788 5789 5788 5789 5790 5790 5782 5782 5783 5783 5775 5776 5777 5780 5778 5777 5773 5765 5759 5754 5750 5742 5742 5739 5739 5733 5732 5724 5717 5718 5710 5707 5704 5701 5699 5696 5693 5692 5692 5691
5783 5787 5787 5786 5783 5785 5785 5783 5780 5779 5777 5776 5776 5772 5770 5769 5771 5772 5771 5770 5765 5763 5757 5751 5746 5737 5733 5729 5728 5727 5722 5722 5711 5706 5700 5696 5692 5689 5686 5684 5681 5678 5677
5785 5784 5785 5785 5785 5784 5783 5781 5778 5776 5775 5772 5770 5768 5766 5767 5767 5765 5765 5758 5755 5754 5752 5737 5737 5736 5727 5726 5723 5720 5720 5715 5711 5700 5695 5691 5685 5681 5677 5671 5667 5664 5662
5785 5786 5783 5783 5782 5780 5781 5779 5775 5773 5772 5769 5767 5765 5762 5760 5756 5756 5753 5753 5751 5746 5745 5739 5732 5730 5724 5720 5719 5717 5714 5706 5705 5695 5690 5686 5678 5672 5668 5662 5656 5651 5648
5785 5783 5781 5781 5782 5782 5781 5777 5773 5771 5770 5766 5763 5761 5757 5753 5750 5750 5747 5745 5743 5744 5739 5735 5728 5722 5717 5714 5712 5708 5706 5707 5699 5690 5686 5684 5673 5666 5663 5654 5647 5639 5634
5783 5782 5781 5783 5782 5780 5780 5774 5772 5769 5766 5763 5759 5754 5749 5744 5741 5740 5740 5734 5736 5735 5734 5732 5725 5717 5707 5705 5699 5702 5697 5692 5692 5683 5677 5678 5669 5657 5653 5646 5637 5630 5627
5781 5782 5782 5780 5781 5783 5771 5769 5770 5767 5764 5759 5754 5751 5748 5744 5738 5733 5730 5726 5724 5722 5718 5718 5715 5706 5695 5692 5688 5685 5682 5676 5673 5675 5665 5666 5662 5653 5646 5637 5628 5621 5617
5781 5782 5781 5779 5777 5771 5766 5765 5766 5766 5762 5757 5754 5753 5751 5743 5739 5734 5727 5724 5719 5714 5710 5706 5699 5691 5685 5680 5677 5674 5668 5664 5664 5668 5657 5649 5650 5645 5638 5625 5618 5614 5606
5783 5782 5780 5778 5772 5766 5762 5762 5763 5762 5759 5755 5751 5747 5744 5738 5730 5729 5728 5722 5715 5707 5702 5699 5691 5684 5678 5672 5668 5668 5665 5665 5666 5655 5645 5633 5635 5630 5627 5617 5607 5601 5591
5782 5781 5780 5775 5770 5763 5758 5759 5760 5760 5754 5749 5747 5742 5738 5730 5722 5721 5720 5714 5708 5702 5693 5688 5682 5677 5670 5665 5661 5662 5655 5652 5646 5642 5627 5622 5623 5620 5616 5610 5595 5585 5575
5784 5785 5776 5772 5768 5763 5758 5757 5755 5759 5751 5748 5742 5736 5730 5725 5720 5717 5716 5712 5704 5698 5695 5690 5682 5674 5668 5661 5655 5649 5644 5641 5636 5631 5616 5611 5609 5606 5601 5599 5586 5578 5566